Tracking 27122 objects as of 26-Mar-2023
HD Live streaming from Space Station
objects crossing your sky now

STARLINK-3131

Track STARLINK-3131 now!
10-day predictions
STARLINK-3131 is classified as:


NORAD ID: 49427
Int'l Code: 2021-104V
Perigee: 546.3 km
Apogee: 547.3 km
Inclination: 53.2 °
Period: 95.4 minutes
Semi major axis: 6917 km
RCS: Unknown
Launch date: November 13, 2021
Source: United States (US)
Launch site: AIR FORCE EASTERN TEST RANGE (AFETR)
Your satellite tracking list
Your tracking list is empty




NASA's NSSDC Master Catalog

Two Line Element Set (TLE):
1 49427U 21104V   23084.22962597  .00025338  00000-0  16034-2 0  9990
2 49427  53.2172  39.4917 0000736  93.3585 266.7492 15.08862037 75525
Source of the keplerian elements: AFSPC